Time,TemperatureF,DewpointF,PressureIn,WindDirection,WindDirectionDegrees,WindSpeedMPH,WindSpeedGustMPH,Humidity,HourlyPrecipIn,Conditions,Clouds,dailyrainin,SoftwareType,DateUTC
2013-07-18 00:00:00,78.8,71.4,30.01,ESE,106,0.0,14.0,78,0.00,,,0.00,Wunderground v.1.15,2013-07-18 04:00:00,
2013-07-18 00:10:00,79.0,71.6,30.01,ESE,104,0.0,0.0,78,0.00,,,0.00,Wunderground v.1.15,2013-07-18 04:10:00,
2013-07-18 00:20:00,78.5,71.4,30.00,ESE,104,0.0,0.0,79,0.00,,,0.00,Wunderground v.1.15,2013-07-18 04:20:00,
2013-07-18 00:30:00,78.3,71.6,30.00,ESE,104,0.0,0.0,80,0.00,,,0.00,Wunderground v.1.15,2013-07-18 04:30:00,
2013-07-18 00:40:00,78.3,71.6,30.00,ESE,104,0.0,0.0,80,0.00,,,0.00,Wunderground v.1.15,2013-07-18 04:40:00,
2013-07-18 00:50:00,77.9,71.6,30.00,ESE,104,0.0,0.0,81,0.00,,,0.00,Wunderground v.1.15,2013-07-18 04:50:00,
2013-07-18 01:00:00,77.7,71.8,29.99,ESE,104,0.0,0.0,82,0.00,,,0.00,Wunderground v.1.15,2013-07-18 05:00:00,
2013-07-18 01:10:00,77.4,71.8,29.99,ESE,104,0.0,4.0,83,0.00,,,0.00,Wunderground v.1.15,2013-07-18 05:10:00,
2013-07-18 01:20:00,77.4,72.5,30.00,ESE,104,0.0,4.0,85,0.00,,,0.00,Wunderground v.1.15,2013-07-18 05:20:00,
2013-07-18 01:30:00,76.7,72.9,30.00,ESE,104,0.0,4.0,88,0.00,,,0.00,Wunderground v.1.15,2013-07-18 05:30:00,
2013-07-18 01:40:00,76.1,72.6,29.99,ESE,104,0.0,4.0,89,0.00,,,0.00,Wunderground v.1.15,2013-07-18 05:40:00,
2013-07-18 01:50:00,75.8,72.7,29.99,East,87,0.0,4.0,90,0.00,,,0.00,Wunderground v.1.15,2013-07-18 05:50:00,
2013-07-18 02:00:00,75.4,72.3,29.99,ENE,71,0.0,4.0,90,0.00,,,0.00,Wunderground v.1.15,2013-07-18 06:00:00,
2013-07-18 02:10:00,75.4,72.6,29.98,ENE,71,0.0,4.0,91,0.00,,,0.00,Wunderground v.1.15,2013-07-18 06:10:00,
2013-07-18 02:20:00,75.3,72.5,29.98,ENE,71,0.0,4.0,91,0.00,,,0.00,Wunderground v.1.15,2013-07-18 06:20:00,
2013-07-18 02:30:00,74.7,72.2,29.99,ENE,71,0.0,4.0,92,0.00,,,0.00,Wunderground v.1.15,2013-07-18 06:30:00,
2013-07-18 02:40:00,74.4,72.2,29.99,ENE,71,0.0,4.0,93,0.00,,,0.00,Wunderground v.1.15,2013-07-18 06:40:00,
2013-07-18 02:50:00,73.9,72.1,29.99,ENE,71,0.0,4.0,94,0.00,,,0.00,Wunderground v.1.15,2013-07-18 06:50:00,
2013-07-18 03:00:00,73.7,72.2,29.99,ENE,71,0.0,4.0,95,0.00,,,0.00,Wunderground v.1.15,2013-07-18 07:00:00,
2013-07-18 03:10:00,73.5,72.0,29.99,ENE,71,0.0,4.0,95,0.00,,,0.00,Wunderground v.1.15,2013-07-18 07:10:00,
2013-07-18 03:20:00,73.2,71.7,29.98,ENE,71,0.0,4.0,95,0.00,,,0.00,Wunderground v.1.15,2013-07-18 07:20:00,
2013-07-18 03:30:00,73.0,72.1,29.99,ENE,71,0.0,4.0,97,0.00,,,0.00,Wunderground v.1.15,2013-07-18 07:30:00,
2013-07-18 03:40:00,72.8,71.9,29.99,ENE,71,0.0,4.0,97,0.00,,,0.00,Wunderground v.1.15,2013-07-18 07:40:00,
2013-07-18 03:50:00,72.7,71.8,29.98,ENE,71,0.0,4.0,97,0.00,,,0.00,Wunderground v.1.15,2013-07-18 07:50:00,
2013-07-18 04:00:00,72.7,72.1,29.99,ENE,71,0.0,4.0,98,0.00,,,0.00,Wunderground v.1.15,2013-07-18 08:00:00,
2013-07-18 04:10:00,73.2,72.6,29.99,ENE,71,0.0,4.0,98,0.00,,,0.00,Wunderground v.1.15,2013-07-18 08:10:00,
2013-07-18 04:20:00,73.3,72.1,29.99,ENE,71,0.0,4.0,96,0.00,,,0.00,Wunderground v.1.15,2013-07-18 08:20:00,
2013-07-18 04:30:00,73.3,71.8,29.99,ENE,71,0.0,4.0,95,0.00,,,0.00,Wunderground v.1.15,2013-07-18 08:30:00,
2013-07-18 04:40:00,73.2,71.1,29.99,ENE,71,0.0,4.0,93,0.00,,,0.00,Wunderground v.1.15,2013-07-18 08:40:00,
2013-07-18 04:50:00,72.8,71.3,29.99,ENE,71,0.0,4.0,95,0.00,,,0.00,Wunderground v.1.15,2013-07-18 08:50:00,
2013-07-18 05:00:00,72.3,70.8,29.99,ENE,71,0.0,4.0,95,0.00,,,0.00,Wunderground v.1.15,2013-07-18 09:00:00,
2013-07-18 05:10:00,72.1,71.2,29.99,ENE,71,0.0,4.0,97,0.00,,,0.00,Wunderground v.1.15,2013-07-18 09:10:00,
2013-07-18 05:20:00,72.0,71.1,29.99,ENE,71,0.0,4.0,97,0.00,,,0.00,Wunderground v.1.15,2013-07-18 09:20:00,
2013-07-18 05:30:00,71.8,70.9,29.99,ENE,71,0.0,4.0,97,0.00,,,0.00,Wunderground v.1.15,2013-07-18 09:30:00,
2013-07-18 05:40:00,71.5,70.6,29.99,ENE,71,0.0,4.0,97,0.00,,,0.00,Wunderground v.1.15,2013-07-18 09:40:00,
2013-07-18 05:50:00,71.5,70.9,29.99,ENE,71,0.0,4.0,98,0.00,,,0.00,Wunderground v.1.15,2013-07-18 09:50:00,
2013-07-18 06:00:00,71.3,70.7,29.99,ENE,71,0.0,4.0,98,0.00,,,0.00,Wunderground v.1.15,2013-07-18 10:00:00,
2013-07-18 06:10:00,71.3,70.7,30.00,ENE,71,0.0,0.0,98,0.00,,,0.00,Wunderground v.1.15,2013-07-18 10:10:00,
2013-07-18 06:20:00,71.1,70.5,30.00,ENE,71,0.0,0.0,98,0.00,,,0.00,Wunderground v.1.15,2013-07-18 10:20:00,
2013-07-18 06:30:00,71.1,70.8,30.00,ENE,71,0.0,0.0,99,0.00,,,0.00,Wunderground v.1.15,2013-07-18 10:30:00,
2013-07-18 06:40:00,70.9,70.6,30.00,ENE,71,0.0,0.0,99,0.00,,,0.00,Wunderground v.1.15,2013-07-18 10:40:00,
2013-07-18 06:50:00,71.5,71.2,30.01,ENE,71,0.0,0.0,99,0.00,,,0.00,Wunderground v.1.15,2013-07-18 10:50:00,
2013-07-18 07:00:00,72.0,71.7,30.01,ENE,71,0.0,0.0,99,0.00,,,0.00,Wunderground v.1.15,2013-07-18 11:00:00,
2013-07-18 07:10:00,72.3,72.0,30.01,ENE,71,0.0,0.0,99,0.00,,,0.00,Wunderground v.1.15,2013-07-18 11:10:00,
2013-07-18 07:20:00,72.3,72.0,30.01,ENE,71,0.0,0.0,99,0.00,,,0.00,Wunderground v.1.15,2013-07-18 11:20:00,
2013-07-18 07:30:00,72.8,72.5,30.01,ENE,71,0.0,0.0,99,0.00,,,0.00,Wunderground v.1.15,2013-07-18 11:30:00,
2013-07-18 07:40:00,73.3,73.0,30.01,East,81,0.0,0.0,99,0.00,,,0.00,Wunderground v.1.15,2013-07-18 11:40:00,
2013-07-18 07:50:00,73.9,73.3,30.02,SSE,168,0.0,0.0,98,0.00,,,0.00,Wunderground v.1.15,2013-07-18 11:50:00,
2013-07-18 08:00:00,74.6,73.7,30.02,East,96,0.0,0.0,97,0.00,,,0.00,Wunderground v.1.15,2013-07-18 12:00:00,
2013-07-18 08:10:00,75.1,73.6,30.02,SE,131,0.0,0.0,95,0.00,,,0.00,Wunderground v.1.15,2013-07-18 12:10:00,
2013-07-18 08:20:00,76.3,74.1,30.02,ESE,121,0.0,0.0,93,0.00,,,0.00,Wunderground v.1.15,2013-07-18 12:20:00,
2013-07-18 08:30:00,77.7,74.5,30.02,ESE,114,0.0,0.0,90,0.00,,,0.00,Wunderground v.1.15,2013-07-18 12:30:00,
2013-07-18 08:40:00,78.8,73.2,30.02,East,88,0.0,0.0,83,0.00,,,0.00,Wunderground v.1.15,2013-07-18 12:40:00,
2013-07-18 08:50:00,79.9,73.5,30.02,ESE,108,0.0,0.0,81,0.00,,,0.00,Wunderground v.1.15,2013-07-18 12:50:00,
2013-07-18 09:00:00,80.7,72.8,30.02,South,179,0.0,1.0,77,0.00,,,0.00,Wunderground v.1.15,2013-07-18 13:00:00,
2013-07-18 09:10:00,81.2,73.7,30.02,South,177,0.0,0.0,78,0.00,,,0.00,Wunderground v.1.15,2013-07-18 13:10:00,
2013-07-18 09:20:00,81.8,73.9,30.02,South,176,0.0,0.0,77,0.00,,,0.00,Wunderground v.1.15,2013-07-18 13:20:00,
2013-07-18 09:30:00,82.2,73.9,30.02,ESE,121,0.0,0.0,76,0.00,,,0.00,Wunderground v.1.15,2013-07-18 13:30:00,
2013-07-18 09:40:00,82.8,71.6,30.02,South,177,0.0,0.0,69,0.00,,,0.00,Wunderground v.1.15,2013-07-18 13:40:00,
2013-07-18 09:50:00,82.4,72.9,30.02,ESE,121,0.0,0.0,73,0.00,,,0.00,Wunderground v.1.15,2013-07-18 13:50:00,
2013-07-18 10:00:00,83.2,72.4,30.01,ESE,102,0.0,0.0,70,0.00,,,0.00,Wunderground v.1.15,2013-07-18 14:00:00,
2013-07-18 10:10:00,84.0,73.6,30.01,West,261,0.0,0.0,71,0.00,,,0.00,Wunderground v.1.15,2013-07-18 14:10:00,
2013-07-18 10:20:00,84.5,71.4,30.02,West,261,0.0,0.0,65,0.00,,,0.00,Wunderground v.1.15,2013-07-18 14:20:00,
2013-07-18 10:30:00,84.9,70.9,30.01,SW,227,0.0,0.0,63,0.00,,,0.00,Wunderground v.1.15,2013-07-18 14:30:00,
2013-07-18 10:40:00,85.3,72.2,30.01,SW,225,0.0,0.0,65,0.00,,,0.00,Wunderground v.1.15,2013-07-18 14:40:00,
2013-07-18 10:50:00,85.5,71.0,30.01,South,181,0.0,0.0,62,0.00,,,0.00,Wunderground v.1.15,2013-07-18 14:50:00,
2013-07-18 11:00:00,86.5,73.8,30.00,ESE,106,0.0,0.0,66,0.00,,,0.00,Wunderground v.1.15,2013-07-18 15:00:00,
2013-07-18 11:10:00,85.7,72.6,30.00,SE,131,1.0,4.0,65,0.00,,,0.00,Wunderground v.1.15,2013-07-18 15:10:00,
2013-07-18 11:20:00,86.1,72.5,30.00,West,263,0.0,0.0,64,0.00,,,0.00,Wunderground v.1.15,2013-07-18 15:20:00,
2013-07-18 11:30:00,86.1,73.0,30.00,South,187,0.0,0.0,65,0.00,,,0.00,Wunderground v.1.15,2013-07-18 15:30:00,
2013-07-18 11:40:00,86.7,73.1,30.00,SSW,203,0.0,0.0,64,0.00,,,0.00,Wunderground v.1.15,2013-07-18 15:40:00,
2013-07-18 11:50:00,87.6,77.0,30.00,NNW,328,0.0,0.0,71,0.00,,,0.00,Wunderground v.1.15,2013-07-18 15:50:00,
2013-07-18 12:00:00,88.2,72.6,30.00,SSW,202,0.0,0.0,60,0.00,,,0.00,Wunderground v.1.15,2013-07-18 16:00:00,
2013-07-18 12:10:00,88.0,75.2,30.00,ESE,103,0.0,0.0,66,0.00,,,0.00,Wunderground v.1.15,2013-07-18 16:10:00,
2013-07-18 12:20:00,88.4,73.7,29.99,SSW,193,0.0,0.0,62,0.00,,,0.00,Wunderground v.1.15,2013-07-18 16:20:00,
2013-07-18 12:30:00,89.0,75.7,29.99,SSW,193,0.0,0.0,65,0.00,,,0.00,Wunderground v.1.15,2013-07-18 16:30:00,
2013-07-18 12:40:00,88.4,74.2,29.99,SE,145,0.0,0.0,63,0.00,,,0.00,Wunderground v.1.15,2013-07-18 16:40:00,
2013-07-18 12:50:00,88.0,74.3,29.98,SSE,158,0.0,0.0,64,0.00,,,0.00,Wunderground v.1.15,2013-07-18 16:50:00,
2013-07-18 13:00:00,88.8,74.6,29.98,East,94,1.0,1.0,63,0.00,,,0.00,Wunderground v.1.15,2013-07-18 17:00:00,
2013-07-18 13:10:00,88.6,74.4,29.98,SE,141,1.0,1.0,63,0.00,,,0.00,Wunderground v.1.15,2013-07-18 17:10:00,
2013-07-18 13:20:00,89.5,77.5,29.98,ESE,105,0.0,3.0,68,0.00,,,0.00,Wunderground v.1.15,2013-07-18 17:20:00,
2013-07-18 13:30:00,88.8,75.5,29.97,South,177,0.0,3.0,65,0.00,,,0.00,Wunderground v.1.15,2013-07-18 17:30:00,
2013-07-18 13:40:00,89.0,76.6,29.97,East,98,1.0,1.0,67,0.00,,,0.00,Wunderground v.1.15,2013-07-18 17:40:00,
2013-07-18 13:50:00,89.5,74.3,29.97,SW,222,0.0,3.0,61,0.00,,,0.00,Wunderground v.1.15,2013-07-18 17:50:00,
2013-07-18 14:00:00,89.3,73.6,29.97,South,181,1.0,1.0,60,0.00,,,0.00,Wunderground v.1.15,2013-07-18 18:00:00,
2013-07-18 14:10:00,87.6,73.9,29.97,ESE,106,1.0,1.0,64,0.00,,,0.00,Wunderground v.1.15,2013-07-18 18:10:00,
2013-07-18 14:20:00,85.9,74.1,29.96,ESE,114,0.0,3.0,68,0.00,,,0.00,Wunderground v.1.15,2013-07-18 18:20:00,
2013-07-18 14:30:00,85.9,74.5,29.95,ESE,114,0.0,3.0,69,0.00,,,0.00,Wunderground v.1.15,2013-07-18 18:30:00,
2013-07-18 14:40:00,86.5,75.1,29.95,SSW,206,2.0,2.0,69,0.00,,,0.00,Wunderground v.1.15,2013-07-18 18:40:00,
2013-07-18 14:50:00,89.0,75.2,29.94,South,185,1.0,1.0,64,0.00,,,0.00,Wunderground v.1.15,2013-07-18 18:50:00,
2013-07-18 15:00:00,89.9,74.2,29.94,SE,126,1.0,3.0,60,0.00,,,0.00,Wunderground v.1.15,2013-07-18 19:00:00,
2013-07-18 15:10:00,89.3,76.0,29.94,South,175,2.0,2.0,65,0.00,,,0.00,Wunderground v.1.15,2013-07-18 19:10:00,
2013-07-18 15:20:00,89.5,77.5,29.94,SE,135,2.0,2.0,68,0.00,,,0.00,Wunderground v.1.15,2013-07-18 19:20:00,
2013-07-18 15:30:00,89.5,77.5,29.94,ESE,121,2.0,2.0,68,0.00,,,0.00,Wunderground v.1.15,2013-07-18 19:30:00,
2013-07-18 15:40:00,89.7,75.9,29.94,ESE,117,1.0,1.0,64,0.00,,,0.00,Wunderground v.1.15,2013-07-18 19:40:00,
2013-07-18 15:50:00,89.0,73.8,29.92,South,179,4.0,6.0,61,0.00,,,0.00,Wunderground v.1.15,2013-07-18 19:50:00,
2013-07-18 16:00:00,88.8,73.1,29.92,ESE,112,4.0,4.0,60,0.00,,,0.00,Wunderground v.1.15,2013-07-18 20:00:00,
2013-07-18 16:10:00,88.8,73.1,29.92,ESE,121,1.0,3.0,60,0.00,,,0.00,Wunderground v.1.15,2013-07-18 20:10:00,
2013-07-18 16:20:00,88.2,72.6,29.92,ESE,104,3.0,3.0,60,0.00,,,0.00,Wunderground v.1.15,2013-07-18 20:20:00,
2013-07-18 16:30:00,88.6,73.9,29.92,East,99,1.0,1.0,62,0.00,,,0.00,Wunderground v.1.15,2013-07-18 20:30:00,
2013-07-18 16:40:00,88.4,75.6,29.92,ESE,121,1.0,1.0,66,0.00,,,0.00,Wunderground v.1.15,2013-07-18 20:40:00,
2013-07-18 16:50:00,88.0,76.1,29.91,SSE,155,2.0,2.0,68,0.00,,,0.00,Wunderground v.1.15,2013-07-18 20:50:00,
2013-07-18 17:00:00,87.2,74.5,29.91,ESE,121,1.0,1.0,66,0.00,,,0.00,Wunderground v.1.15,2013-07-18 21:00:00,
2013-07-18 17:10:00,85.9,75.8,29.91,SE,126,1.0,3.0,72,0.00,,,0.00,Wunderground v.1.15,2013-07-18 21:10:00,
2013-07-18 17:20:00,85.3,75.7,29.90,East,86,1.0,1.0,73,0.00,,,0.00,Wunderground v.1.15,2013-07-18 21:20:00,
2013-07-18 17:30:00,84.7,76.3,29.90,East,87,0.0,3.0,76,0.00,,,0.00,Wunderground v.1.15,2013-07-18 21:30:00,
2013-07-18 17:40:00,84.0,74.8,29.90,SE,141,1.0,1.0,74,0.00,,,0.00,Wunderground v.1.15,2013-07-18 21:40:00,
2013-07-18 17:50:00,84.0,75.6,29.91,ESE,114,0.0,3.0,76,0.00,,,0.00,Wunderground v.1.15,2013-07-18 21:50:00,
2013-07-18 18:00:00,83.4,74.6,29.91,ESE,110,0.0,3.0,75,0.00,,,0.00,Wunderground v.1.15,2013-07-18 22:00:00,
2013-07-18 18:10:00,82.8,74.8,29.92,ESE,112,0.0,0.0,77,0.00,,,0.00,Wunderground v.1.15,2013-07-18 22:10:00,
2013-07-18 18:20:00,82.6,74.3,29.92,ESE,106,0.0,0.0,76,0.00,,,0.00,Wunderground v.1.15,2013-07-18 22:20:00,
2013-07-18 18:30:00,82.2,74.7,29.92,ESE,106,0.0,0.0,78,0.00,,,0.00,Wunderground v.1.15,2013-07-18 22:30:00,
2013-07-18 18:40:00,82.0,74.5,29.92,ESE,106,0.0,0.0,78,0.00,,,0.00,Wunderground v.1.15,2013-07-18 22:40:00,
2013-07-18 18:50:00,81.8,74.3,29.92,East,98,1.0,2.0,78,0.00,,,0.00,Wunderground v.1.15,2013-07-18 22:50:00,
2013-07-18 19:00:00,82.0,74.1,29.92,East,81,1.0,1.0,77,0.00,,,0.00,Wunderground v.1.15,2013-07-18 23:00:00,
2013-07-18 19:10:00,81.8,73.9,29.92,East,101,1.0,7.0,77,0.00,,,0.00,Wunderground v.1.15,2013-07-18 23:10:00,
2013-07-18 19:20:00,81.8,73.9,29.92,ESE,111,0.0,7.0,77,0.00,,,0.00,Wunderground v.1.15,2013-07-18 23:20:00,
2013-07-18 19:30:00,81.4,73.9,29.92,East,96,0.0,7.0,78,0.00,,,0.00,Wunderground v.1.15,2013-07-18 23:30:00,
2013-07-18 19:40:00,81.2,73.7,29.92,East,96,0.0,7.0,78,0.00,,,0.00,Wunderground v.1.15,2013-07-18 23:40:00,
2013-07-18 19:50:00,81.1,74.0,29.92,East,95,0.0,7.0,79,0.00,,,0.00,Wunderground v.1.15,2013-07-18 23:50:00,
2013-07-18 20:00:00,80.7,73.6,29.92,East,95,0.0,7.0,79,0.00,,,0.00,Wunderground v.1.15,2013-07-19 00:00:00,
2013-07-18 20:10:00,80.5,73.4,29.92,ESE,116,1.0,1.0,79,0.00,,,0.00,Wunderground v.1.15,2013-07-19 00:10:00,
2013-07-18 20:20:00,80.5,73.4,29.92,ESE,116,0.0,7.0,79,0.00,,,0.00,Wunderground v.1.15,2013-07-19 00:20:00,
2013-07-18 20:30:00,80.1,73.0,29.92,NE,55,1.0,7.0,79,0.00,,,0.00,Wunderground v.1.15,2013-07-19 00:30:00,
2013-07-18 20:40:00,80.1,72.6,29.92,ENE,58,0.0,7.0,78,0.00,,,0.00,Wunderground v.1.15,2013-07-19 00:40:00,
2013-07-18 20:50:00,80.1,73.0,29.92,ENE,58,0.0,7.0,79,0.00,,,0.00,Wunderground v.1.15,2013-07-19 00:50:00,
2013-07-18 21:00:00,79.9,72.8,29.92,ENE,58,0.0,7.0,79,0.00,,,0.00,Wunderground v.1.15,2013-07-19 01:00:00,
2013-07-18 21:10:00,79.8,72.7,29.92,ENE,58,0.0,7.0,79,0.00,,,0.00,Wunderground v.1.15,2013-07-19 01:10:00,
2013-07-18 21:20:00,79.8,72.7,29.92,ENE,58,0.0,7.0,79,0.00,,,0.00,Wunderground v.1.15,2013-07-19 01:20:00,
2013-07-18 21:30:00,79.2,72.9,29.94,ENE,58,0.0,7.0,81,0.00,,,0.00,Wunderground v.1.15,2013-07-19 01:30:00,
2013-07-18 21:40:00,78.5,72.5,29.94,ENE,58,0.0,7.0,82,0.00,,,0.00,Wunderground v.1.15,2013-07-19 01:40:00,
2013-07-18 21:50:00,78.5,72.5,29.92,ENE,58,0.0,7.0,82,0.00,,,0.00,Wunderground v.1.15,2013-07-19 01:50:00,
2013-07-18 22:00:00,78.3,72.3,29.93,ENE,58,0.0,7.0,82,0.00,,,0.00,Wunderground v.1.15,2013-07-19 02:00:00,
2013-07-18 22:10:00,78.5,72.2,29.93,ENE,58,0.0,7.0,81,0.00,,,0.00,Wunderground v.1.15,2013-07-19 02:10:00,
2013-07-18 22:20:00,78.5,72.2,29.92,ENE,59,0.0,7.0,81,0.00,,,0.00,Wunderground v.1.15,2013-07-19 02:20:00,
2013-07-18 22:30:00,78.1,72.2,29.93,East,99,0.0,7.0,82,0.00,,,0.00,Wunderground v.1.15,2013-07-19 02:30:00,
2013-07-18 22:40:00,78.1,71.8,29.93,East,99,0.0,7.0,81,0.00,,,0.00,Wunderground v.1.15,2013-07-19 02:40:00,
2013-07-18 22:50:00,77.9,71.6,29.93,East,99,0.0,7.0,81,0.00,,,0.00,Wunderground v.1.15,2013-07-19 02:50:00,
2013-07-18 23:00:00,77.4,71.5,29.92,East,81,0.0,7.0,82,0.00,,,0.00,Wunderground v.1.15,2013-07-19 03:00:00,
2013-07-18 23:10:00,77.2,71.3,29.92,East,81,0.0,7.0,82,0.00,,,0.00,Wunderground v.1.15,2013-07-19 03:10:00,
2013-07-18 23:20:00,77.2,71.3,29.92,East,81,0.0,7.0,82,0.00,,,0.00,Wunderground v.1.15,2013-07-19 03:20:00,
2013-07-18 23:30:00,77.4,71.1,29.91,East,81,0.0,7.0,81,0.00,,,0.00,Wunderground v.1.15,2013-07-19 03:30:00,
2013-07-18 23:40:00,77.6,70.9,29.91,East,95,0.0,7.0,80,0.00,,,0.00,Wunderground v.1.15,2013-07-19 03:40:00,
2013-07-18 23:50:00,77.9,70.9,29.91,East,83,0.0,7.0,79,0.00,,,0.00,Wunderground v.1.15,2013-07-19 03:50:00,